Phuket, Thailand

5:59 PM ICT on August 28, 2016 (GMT +0700)
Phuket International

Weather History for VTSP - March, 2013

Change the Weather History Date:

Saturday, March 2, 2013

  Actual Average Record
Temperature  
Mean Temperature 86 °F -  
Max Temperature 95 °F 92 °F 98 °F (2002)
Min Temperature 76 °F 76 °F 68 °F (2014)
Cooling Degree Days 20    
Growing Degree Days 36 (Base 50)    
Moisture  
Dew Point 74 °F    
Average Humidity 73    
Maximum Humidity 94    
Minimum Humidity 41    
Precipitation  
Precipitation 0.00 in 0.09 in - ()
Sea Level Pressure  
Sea Level Pressure 29.84 in    
Wind  
Wind Speed 4 mph ()    
Max Wind Speed 16 mph    
Max Gust Speed -    
Visibility 5.8 miles    
Events      
Averages and records for this station are not official NWS values.
T = Trace of Precipitation, MM = Missing Value Source: Averaged Metar Reports

Daily Weather History Graph

Daily Weather History Graph

Search for Another Location

Airport or City:

Trip Planner

Search our weather history database for the weather conditions in past years. The results will help you decide how hot, cold, wet, or windy it might be!

Date:

Astronomy

Mar. 02, 2013 Rise Set
Actual Time 6:39 AM ICT 6:38 PM ICT
Civil Twilight 6:18 AM ICT 6:59 PM ICT
Nautical Twilight 5:54 AM ICT 7:23 PM ICT
Astronomical Twilight 5:29 AM ICT 7:47 PM ICT
Moon 10:35 PM ICT (3/2) 9:48 AM ICT (3/2)
Length of Visible Light 12h 40m
Length of Day
11h 58m
Waning Gibbous, 79% of the Moon is Illuminated
Mar 2
Waning Gibbous
Mar 5
Last Quarter
Mar 12
New
Mar 20
First Quarter
Mar 27
Full

Hourly Weather History & Observations

Time (ICT) Temp. Heat Index Dew Point Humidity Pressure Visibility Wind Dir Wind Speed Gust Speed Precip Events Conditions
12:00 AM 78.8 °F - 77.0 °F 94% 29.86 in 5.0 mi Calm Calm - N/A   Mostly Cloudy
12:30 AM 78.8 °F - 77.0 °F 94% 29.86 in 5.0 mi Calm Calm - N/A   Mostly Cloudy
1:00 AM 80 °F - 78 °F 91% 29.80 in 6 mi Calm Calm - -   Mist
1:00 AM 78.8 °F - 75.2 °F 89% 29.83 in 5.0 mi Calm Calm - N/A   Mostly Cloudy
1:30 AM 78.8 °F - 75.2 °F 89% 29.83 in 5.0 mi Calm Calm - N/A   Mostly Cloudy
2:00 AM 78.8 °F - 77.0 °F 94% 29.83 in 5.0 mi Calm Calm - N/A   Mostly Cloudy
2:30 AM 78.8 °F - 75.2 °F 89% 29.83 in 5.0 mi Calm Calm - N/A   Mostly Cloudy
3:00 AM 78.8 °F - 75.2 °F 89% 29.83 in 5.0 mi NE 5.8 mph - N/A   Mostly Cloudy
3:30 AM 78.8 °F - 73.4 °F 83% 29.83 in 5.0 mi Calm Calm - N/A   Mostly Cloudy
4:00 AM 77.0 °F - 73.4 °F 89% 29.83 in 5.0 mi Calm Calm - N/A   Mostly Cloudy
4:30 AM 77.0 °F - 73.4 °F 89% 29.80 in 5.0 mi Calm Calm - N/A   Mostly Cloudy
5:00 AM 78.8 °F - 73.4 °F 83% 29.83 in 5.0 mi Calm Calm - N/A   Mostly Cloudy
5:30 AM 77.0 °F - 73.4 °F 89% 29.83 in 5.0 mi East 4.6 mph - N/A   Mostly Cloudy
6:00 AM 77.0 °F - 73.4 °F 89% 29.83 in 5.0 mi ENE 5.8 mph - N/A   Mostly Cloudy
6:30 AM 77.0 °F - 73.4 °F 89% 29.86 in 5.0 mi Calm Calm - N/A   Mostly Cloudy
7:00 AM 77 °F - 75 °F 90% 29.81 in 6 mi Calm Calm - -   Mist
7:00 AM 77.0 °F - 73.4 °F 89% 29.83 in 5.6 mi ENE 8.1 mph - N/A   Mostly Cloudy
7:30 AM 80.6 °F 85.4 °F 73.4 °F 79% 29.86 in 5.6 mi East 6.9 mph - N/A   Mostly Cloudy
8:00 AM 80.6 °F 85.4 °F 73.4 °F 79% 29.86 in 5.6 mi ENE 5.8 mph - N/A   Mostly Cloudy
8:30 AM 82.4 °F 88.2 °F 73.4 °F 74% 29.89 in 6.2 mi ENE 4.6 mph - N/A   Scattered Clouds
9:00 AM 84.2 °F 90.9 °F 73.4 °F 70% 29.89 in 6.2 mi East 8.1 mph - N/A   Scattered Clouds
9:30 AM 84.2 °F 92.3 °F 75.2 °F 74% 29.89 in 6.2 mi ENE 8.1 mph - N/A   Scattered Clouds
10:00 AM 86.0 °F 91.8 °F 71.6 °F 62% 29.89 in 6.2 mi East 11.5 mph - N/A   Scattered Clouds
10:30 AM 87.8 °F 93.8 °F 71.6 °F 58% 29.89 in 6.2 mi East 16.1 mph - N/A   Scattered Clouds
11:00 AM 87.8 °F 93.8 °F 71.6 °F 58% 29.89 in 6.2 mi East 16.1 mph - N/A   Scattered Clouds
11:30 AM 89.6 °F 96.2 °F 71.6 °F 55% 29.89 in 6.2 mi East 13.8 mph - N/A   Scattered Clouds
12:30 PM 91.4 °F 98.4 °F 71.6 °F 52% 29.86 in 6.2 mi ENE 10.4 mph - N/A   Scattered Clouds
1:00 PM 92 °F - 73 °F 45% 29.83 in 6 mi East 10.4 mph - -   Scattered Clouds
1:00 PM 91.4 °F 98.4 °F 71.6 °F 52% 29.86 in 6.2 mi ENE 9.2 mph - N/A   Scattered Clouds
1:30 PM 91.4 °F 98.4 °F 71.6 °F 52% 29.83 in 6.2 mi ENE 11.5 mph - N/A   Scattered Clouds
2:00 PM 93.2 °F 98.8 °F 69.8 °F 46% 29.83 in 6.2 mi ENE 9.2 mph - N/A   Scattered Clouds
2:30 PM 93.2 °F 98.8 °F 69.8 °F 46% 29.80 in 6.2 mi ENE 8.1 mph - N/A   Scattered Clouds
3:00 PM 93.2 °F 98.8 °F 69.8 °F 46% 29.77 in 6.2 mi ESE 11.5 mph - N/A   Scattered Clouds
3:30 PM 95.0 °F 99.5 °F 68.0 °F 41% 29.77 in 6.2 mi East 10.4 mph - N/A   Scattered Clouds
4:00 PM 95.0 °F 99.5 °F 68.0 °F 41% 29.74 in 6.2 mi East 10.4 mph - N/A   Scattered Clouds
4:30 PM 95.0 °F 99.5 °F 68.0 °F 41% 29.74 in 6.2 mi East 9.2 mph - N/A   Scattered Clouds
5:00 PM 95.0 °F 99.5 °F 68.0 °F 41% 29.74 in 6.2 mi ENE 5.8 mph - N/A   Scattered Clouds
5:30 PM 91.4 °F 102.5 °F 75.2 °F 59% 29.77 in 6.2 mi Variable 5.8 mph - N/A   Scattered Clouds
6:00 PM 89.6 °F 102.2 °F 77.0 °F 66% 29.80 in 6.2 mi WNW 10.4 mph - N/A   Scattered Clouds
6:30 PM 86.0 °F 96.9 °F 77.0 °F 74% 29.80 in 6.2 mi West 13.8 mph - N/A   Mostly Cloudy
7:00 PM 86 °F - 79 °F 74% 29.77 in 6 mi WSW 6.9 mph - -   Scattered Clouds
7:00 PM 86.0 °F 96.9 °F 77.0 °F 74% 29.80 in 6.2 mi West 9.2 mph - N/A   Mostly Cloudy
7:30 PM 84.2 °F 94.1 °F 77.0 °F 79% 29.83 in 6.2 mi WSW 6.9 mph - N/A   Mostly Cloudy
8:00 PM 84.2 °F 94.1 °F 77.0 °F 79% 29.83 in 6.2 mi WSW 4.6 mph - N/A   Mostly Cloudy
8:30 PM 84.2 °F 94.1 °F 77.0 °F 79% 29.86 in 6.2 mi Calm Calm - N/A   Scattered Clouds
9:00 PM 82.4 °F 92.4 °F 78.8 °F 89% 29.86 in 6.2 mi Calm Calm - N/A   Scattered Clouds
9:30 PM 82.4 °F 90.9 °F 77.0 °F 84% 29.89 in 6.2 mi Calm Calm - N/A   Scattered Clouds
10:00 PM 80.6 °F 87.1 °F 77.0 °F 89% 29.89 in 6.2 mi Calm Calm - N/A   Mostly Cloudy
10:30 PM 80.6 °F 87.1 °F 77.0 °F 89% 29.89 in 6.2 mi Variable 3.5 mph - N/A   Mostly Cloudy
11:00 PM 80.6 °F 86.2 °F 75.2 °F 84% 29.89 in 5.6 mi Calm Calm - N/A   Mostly Cloudy
11:30 PM 80.6 °F 87.1 °F 77.0 °F 89% 29.89 in 5.6 mi Calm Calm - N/A   Mostly Cloudy